Flag for Canada Weather past 2 weeks in Timmins, Ontario, Canada

Now
64 °F

Light rain. Mostly cloudy.


Feels Like: 64 °F
Forecast: 48 / 67 °F
Wind: 2 mph from Northwest

Location: Timmins

Current Time: Jul 7, 2015 at 1:05:36 AM

Latest Report: Jul 7, 2015 at 12:00 AM


Visibility: 10 mi

Pressure: 29.73 "Hg

Humidity: 94%

Dew point: 63 °F

Location of TimminsLocation

Historic Weather in Timmins — Graph

°F

Timmins temperature yesterday

Maximum temperature yesterday: 81 °F (at 3:00 PM)
Minimum temperature yesterday: 63 °F (at 4:00 AM)
Average temperature yesterday: 71 °F

Past Weeks' High & Low Weather Summary

 TemperatureHumidityPressure
High82 °F (Jun 29, 4:00 PM)100% (Jun 22, 12:00 AM)30.11 "Hg (Jun 22, 12:00 AM)
Low37 °F (Jul 2, 5:00 AM)27% (Jun 25, 5:00 PM)29.47 "Hg (Jun 23, 4:00 AM)
Average61 °F74%29.90 "Hg
* Reported Midnight between Jun 21 and Jun 22 — Midnight between Jul 6 and Jul 7, Timmins, Weather by CustomWeather, © 2015

Note: Actual official high and low records may vary slightly from our data, if they occured in-between our weather recording intervals... More about our weather records

Advertising

Timmins weather history for previous 24 hours

 ConditionsComfort  
Time TempWeatherWind HumidityBarometerVisibility
12:00 AM
Tue, Jul 7
64 °FLight rain. Mostly cloudy.2 mph94%29.73 "Hg10 mi
11:00 PM
Mon, Jul 6
68 °FLight rain. Overcast.5 mph88%29.77 "Hg10 mi
10:00 PM68 °FLight rain. Mostly cloudy.No wind94%29.77 "Hg10 mi
9:00 PM72 °FMostly cloudy.3 mph83%29.78 "Hg15 mi
8:00 PM75 °FCloudy.3 mph65%29.78 "Hg12 mi
7:00 PM77 °FBroken clouds.5 mph61%29.78 "Hg12 mi
6:00 PM79 °FBroken clouds.8 mph61%29.79 "Hg12 mi
5:00 PM79 °FMore clouds than sun.9 mph61%29.80 "Hg12 mi
4:00 PM81 °FMore clouds than sun.12 mph58%29.80 "Hg12 mi
3:00 PM81 °FBroken clouds.9 mph58%29.82 "Hg12 mi
2:00 PM79 °FPartly sunny.8 mph61%29.83 "Hg12 mi
1:00 PM77 °FOvercast.7 mph69%29.85 "Hg10 mi
12:00 PM75 °FMostly cloudy.10 mph69%29.86 "Hg10 mi
11:00 AM77 °FCloudy.10 mph65%29.85 "Hg10 mi
10:00 AM73 °FCloudy.13 mph69%29.86 "Hg10 mi
9:00 AM70 °FBroken clouds.13 mph73%29.86 "Hg15 mi
8:00 AM66 °FBroken clouds.10 mph78%29.88 "Hg15 mi
7:00 AM63 °FBroken clouds.10 mph83%29.88 "Hg15 mi
6:00 AM63 °FPassing clouds.9 mph83%29.90 "Hg15 mi
5:00 AM63 °FPartly cloudy.10 mph77%29.90 "Hg15 mi
4:00 AM63 °FPassing clouds.8 mph83%29.91 "Hg15 mi
3:00 AM64 °FPassing clouds.7 mph83%29.91 "Hg15 mi
2:00 AM66 °FPassing clouds.9 mph78%29.91 "Hg15 mi
1:00 AM66 °FPassing clouds.6 mph83%29.92 "Hg15 mi
Weather by CustomWeather, © 2015

See weather overviewHow to use our weather pages